Regional Weather Roundup
Issued by NWS Charleston, SC

Current Version | Previous Version | Graphics & Text | Print | Product List | Glossary On
Versions: 1 2 3 4 5 6 7 8 9 10 11 12 13 14 15 16 17 18 19 20 21 22 23 24 25 26 27 28 29 30 31 32 33 34 35 36 37 38 39 40 41 42 43 44 45 46 47 48 49 50
524
ASUS42 KCHS 261126
RWRCHS

REGIONAL WEATHER ROUNDUP
NATIONAL WEATHER SERVICE CHARLESTON SC
600 AM EST SUN FEB 26 2017

NOTE: "FAIR" INDICATES FEW OR NO CLOUDS BELOW 12,000 FEET WITH NO
SIGNIFICANT WEATHER AND/OR OBSTRUCTIONS TO VISIBILITY.

NOT ALL STATIONS ARE QUALITY CONTROLLED. USE DATA WITH CAUTION...
ESPECIALLY DEWPOINT OBSERVATIONS.

SCZ027-030-031-034>040-042>050-261200-
...SOUTHEAST SOUTH CAROLINA...

CITY           SKY/WX    TMP DP  RH WIND       PRES   REMARKS
N CHARLESTON   CLEAR     46  24  42 NW7       30.09R
WATERFRONT PRK   N/A     51  28  41 VRB3      30.06R
MOUNT PLEASANT LGT RAIN  46  28  49 CALM      30.10R
JOHNS ISLAND   FAIR      45  27  49 W7        30.11R
PINOPOLIS        N/A     54  32  43 N13       29.99R
MONCKS CORNER  FAIR      41  25  52 CALM      30.10R
SUMMERVILLE    FAIR      43  28  56 CALM      30.12R
BEAUFORT MCAS  CLEAR     46  27  47 NW5       30.11R
BEAUFORT ARPT  FAIR      46  30  53 NW9       30.12R
HILTON HEAD IS NOT AVBL
WALTERBORO     SUNNY     41  27  56 W3        30.13R
ALLENDALE      FAIR      41  25  52 CALM      30.12R

...SOUTHERN MIDLANDS AND PEE DEE...

CITY           SKY/WX    TMP DP  RH WIND       PRES   REMARKS
GEORGETOWN     FAIR      43  28  56 NW3       30.10R
KINGSTREE      FAIR      36  27  69 CALM      30.10R
ORANGEBURG     CLEAR     44  24  45 NW5       30.10R
BARNWELL       FAIR      37  28  70 W5        30.13R WCI  34
AIKEN          FAIR      36  23  60 W5        30.14R WCI  32
MANNING        FAIR      37  27  65 MISG      30.10R
COLUMBIA       CLEAR     37  27  67 CALM      30.10R
SUMTER         CLEAR     42  20  41 NW7       30.07R
FLORENCE       CLEAR     42  18  37 NW6       30.09R
MYRTLE BEACH   CLEAR     46  27  46 NW7       30.09R
N MYRTLE BEACH CLEAR     46  29  51 NW3       30.07R

$$

GAZ063-065-086>088-099>101-113>116-118-119-134>141-150-261200-
...SOUTHEAST GEORGIA...

CITY           SKY/WX    TMP DP  RH WIND       PRES   REMARKS
SAVANNAH ARPT  CLEAR     47  24  40 NW8       30.12R
HUNTER AAF     CLEAR     47  28  47 CALM      30.10R
FORT STEWART   CLEAR     43  32  66 CALM      30.11R
STATESBORO     CLEAR     39  32  74 CALM      30.13R
SYLVANIA       SUNNY    N/A N/A N/A CALM      30.14R
CLAXTON        FAIR     N/A N/A N/A CALM      30.15R

...CSRA...CENTRAL AND FAR SOUTHEAST GEORGIA...

CITY           SKY/WX    TMP DP  RH WIND       PRES   REMARKS
THOMSON        CLEAR     37  28  70 CALM      30.17R
AUGUSTA-BUSH   CLEAR     37  25  61 CALM      30.12R
AUGUSTA-DANIEL CLEAR     43  19  38 NW7       30.12R
SWAINSBORO     FAIR      37  28  70 NW3       30.15R
VIDALIA        CLEAR     43  32  65 CALM      30.15R
EASTMAN        FAIR      34  22  61 CALM      30.18R
HAZLEHURST     FAIR      39  34  81 CALM      30.14R
ALMA           CLEAR     37  31  78 CALM      30.13R
WAYCROSS       CLEAR     44  34  69 N3        30.15R
JESUP          FAIR      41  32  70 CALM      30.15R
BAXLEY         FAIR      37  34  87 CALM      30.15R
BRUNSWICK      CLEAR     45  32  61 NW3       30.14R
SAINT SIMONS   CLEAR     50  25  37 N6        30.12R

$$

SCZ027-028-034-036>038-045-046-048>050-GAZ119-141-261200-
...LAKE AND SUPPLEMENTAL COASTAL OBSERVATIONS...

STATION/POSITION TIME  TEMP    WIND        PRES    WAVE   SWELL
                       AIR SEA DIR/SP/G            HT/PER HT/PER/DIR
                 (UTC) (F)     (DEG/KT/KT) (MB)    (FT/S) (FT/S/D)
WINYAH BAY       1030   47     320/  3     1018.0R
LAKE MURRAY      1050   42     310/  3/  5 1018.6R
ACE BASIN NERRS  1030   46        CALM     1018.0S
FORT PULASKI     1100   50 63  330/  9/ 10 1020.2
SAPELO ISLAND    1100   49     330/  5     1020.0

$$

ANZ835-935-AMZ111-154-330-350-352-354-370-450-454-472-261200-
...C-MAN AND BUOY OBSERVATIONS...

STATION/POSITION TIME  TEMP    WIND        PRES    WAVE   SWELL
                       AIR SEA DIR/SP/G            HT/PER HT/PER/DIR
                 (UTC) (F)     (DEG/KT/KT) (MB)    (FT/S) (FT/S/D)
BUOY 41004       1050   59 69  320/ 19/ 21 1017.1R   6/ 5   3/110/10
BUOY 41008       1050   55 62  330/ 17/ 21 1018.9R   4/ 5   2/110/10
FOLLY BEACH CMAN 1100   49     310/  5/  7 1019.4R
CAPERS NEARSHORE 1108   53 60  330/ 14/ 17 1018.4R
FRIPP NEARSHORE  1108   53 62  320/ 12/ 16 1019.3R


STATION/POSITION TIME  TEMP    WIND        PRES    WAVE   SWELL
                       AIR SEA DIR/SP/G            HT/PER HT/PER/DIR
                 (UTC) (F)     (DEG/KT/KT) (MB)    (FT/S) (FT/S/D)
5E ST. MARYS GA  1100      64                N/A     4/ 5   2/ 80/11
FRYING PAN BUOY  1110   58 69  340/ 19/ 25 1017.3
BUOY 41025       1050   56 72  340/ 19/ 23 1014.6R   6/10   5/150/10
CAPE LOOKOUT NC  1100   51     340/ 18/ 22 1016.2R
BUOY 41002       1050   70 71  310/ 12/ 14 1014.6R   6/ 9   5/130/ 9
BUOY 41010       NOT AVBL
ST AUGUSTINE FL  1100   56 65  340/ 14/ 15 1020.4R


$$




USA.gov is the U.S. government's official web portal to all federal, state and local government web resources and services.